Location: Newark
(21.1200°N, 73.4000°E)
Time: 02:05:20
(UTC+00:00)

SR - Pass Details

Date: 03 February 2020
Orbit: 575 x 880 km, 66.7° (Epoch: 25 February)

Event Time Altitude Azimuth Distance (km) Brightness Sun altitude
Rises 02:17:23 0° 307° (NW) 3,145 ? 6.7°
Reaches altitude 10° 02:21:53 10° 270° (W) 2,128 ? 7.7°
Maximum altitude 02:22:55 11° 257° (WSW) 2,063 ? 7.9°
Drops below altitude 10° 02:23:56 10° 244° (WSW) 2,085 ? 8.2°
Sets 02:28:09 0° 206° (SSW) 2,910 ? 9.1°
